Starlink 11683

operational
NORAD ID: 64239 Int'l Des: 2025-119 Owner: SPXS Country: US Constellation: starlink
LEOCIRCULAR

About Starlink 11683

Description loading...

Live Position

Loading 3D Globe...

Upcoming Passes

Altitude History

Altitude vs Time

uPlot chart will show altitude changes over time

Two-Line Element Set

1 64239U 25119G 25307.82964959 .00238310 00000-0 17991-2 0 9997
2 64239 42.9992 247.4471 0001157 175.5307 184.5571 15.70957143 25451
Epoch: Nov 3, 2025 • Age: 7 hours

Current Status

Altitude 362.0 km
Velocity 7.69 km/s
Sub-Earth Point -23.72°S, 123.17°E
Launch Date Jun 3, 2025
Age 0.4 years
Type internet

Technical Details

Classification Payload
Mass 960.00 kg
Dry Mass 910.00 kg
Total Mass 960.00 kg
Length 0.30 m
Diameter 4.10 m
Span 29.00 m
Shape Box + pan
Manufacturer SPXS
Bus Type Starlink V2MD
Phase Status In Orbit
Owner/State SPXS/US

Large Constellations

Loading constellations...